User: anonymous   Login
Location: Demmingen
(48.6757°N, 10.4375°E)
Time: 07:42:50
(UTC+00:00)
Language:

CZ-6A DEB - Orbit

View from above orbital plane
View from above orbital plane
View from above satellite
View from above satellite

Ground track
Ground track

The orbit data is extracted from the following two-line orbital elements,

1 54314U 22151BH  24280.84187024  .00169572  00000-0  18917-1 0  9995
2 54314  98.5809 317.6432 0074247 324.2117  35.4132 14.84121708100586
Epoch (UTC): 06 October 2024 20:12:17
Eccentricity: 0.0074247
inclination: 98.5809°
perigee height: 564 km
apogee height: 668 km
right ascension of ascending node: 317.6432°
argument of perigee: 324.2117°
revolutions per day: 14.84121708
mean anomaly at epoch: 35.4132°
orbit number at epoch: 10058

The dashed part of the orbit path shows where the satellite is in the earth's shadow,  

DLR